Regional Weather Roundup
Issued by NWS Raleigh/Durham, NC

Home | Current Version | Previous Version | Text Only | Print | Product List | Glossary On
Versions: 1 2 3 4 5 6 7 8 9 10 11 12 13 14 15 16 17 18 19 20 21 22 23 24 25 26 27
000
ASUS42 KRAH 272310
RWRRAH
NORTH CAROLINA WEATHER ROUNDUP
NATIONAL WEATHER SERVICE RALEIGH NC
700 PM EDT FRI MAY 27 2016

NOTE: "FAIR" INDICATES FEW OR NO CLOUDS BELOW 12,000 FEET WITH NO
SIGNIFICANT WEATHER AND/OR OBSTRUCTIONS TO VISIBILITY.

NCZ001-053-055-056-065-067-280000-
WESTERN NORTH CAROLINA

CITY           SKY/WX    TMP DP  RH WIND       PRES   REMARKS
ASHEVILLE      MOSUNNY   77  59  53 S12       30.11F
JEFFERSON      PTSUNNY   72  60  65 SE5       30.17S
MORGANTON      SUNNY     81  61  50 S6        30.12S
HICKORY        SUNNY     81  60  48 VRB7      30.08S
RUTHERFORDTON  SUNNY     81  62  52 S8        30.09R
MOUNT AIRY     SUNNY     82  66  57 S6        30.10R
BOONE          MOSUNNY   73  58  59 S5        30.18S
$$

NCZ021-022-025-041-071-084-088-280000-
CENTRAL NORTH CAROLINA

CITY           SKY/WX    TMP DP  RH WIND       PRES   REMARKS
CHARLOTTE      MOSUNNY   82  61  48 S8        30.07F
GREENSBORO     MOSUNNY   81  62  52 S12       30.08S
WINSTON-SALEM  MOSUNNY   82  61  48 SE8       30.08F
RALEIGH-DURHAM MOSUNNY   84  62  47 S7        30.07F
FORT BRAGG     SUNNY     84  60  43 SE13      30.06F
FAYETTEVILLE   SUNNY     84  57  39 SE12G22   30.07S
BURLINGTON     SUNNY     83  63  50 VRB3      30.07F
LAURINBURG     SUNNY     85  59  41 SE10      30.07S
$$

NCZ011-015-027-028-043-044-047-080-103-280000-
NORTHEASTERN NORTH CAROLINA

CITY           SKY/WX    TMP DP  RH WIND       PRES   REMARKS
ROCKY MT-WILSO SUNNY     84  59  42 S6        30.08S
GREENVILLE     SUNNY     82  55  39 SE13      30.11S
WASHINGTON     SUNNY     80  60  51 SE8       30.11S
ELIZABETH CITY SUNNY     79  57  46 S8        30.11F
MANTEO         NOT AVBL
CAPE HATTERAS  SUNNY     78  63  59 SE6       30.14S
$$

NCZ078-087-090-091-093-098-101-280000-
SOUTHEASTERN NORTH CAROLINA

CITY           SKY/WX    TMP DP  RH WIND       PRES   REMARKS
LUMBERTON      SUNNY     84  57  39 SE10      30.07S
GOLDSBORO      SUNNY     83  56  39 S9        30.08S
KINSTON        SUNNY     81  55  41 S12       30.11S
KENANSVILLE    SUNNY     80  54  41 CALM      30.11S
NEW BERN       SUNNY     79  58  48 SE6       30.12S
CHERRY POINT   SUNNY     78  60  53 SE9       30.13S
BEAUFORT       SUNNY     77  62  59 SE8       30.13S
JACKSONVILLE   SUNNY     77  60  55 SE12      30.11F
WILMINGTON     SUNNY     77  61  57 E10       30.11F
$$





USA.gov is the U.S. government's official web portal to all federal, state and local government web resources and services.